Home > Weather > Stanley > Past weeks

Flag for Falkland Islands Weather for the Past 2 Weeks in Stanley, Falkland Islands

Now
52 °F

Scattered clouds.


Feels Like: 45 °F
Forecast: N/A
Wind: 28 mph from Southwest

Location: Mount Pleasant Airport

Current Time: Feb 10, 2016 at 6:08:44 PM

Latest Report: Feb 10, 2016 at 4:50 PM


Visibility: N/A

Pressure: 29.62 "Hg

Humidity: 54%

Dew point: 36 °F

Location of StanleyLocation

Historic Weather in Stanley — Graph

°F

Stanley Temperature Yesterday

Maximum temperature yesterday: 52 °F (at 9:50 AM)
Minimum temperature yesterday: 45 °F (at 1:50 PM)
Average temperature yesterday: 48 °F

High & Low Weather Summary for the Past Weeks

 TemperatureHumidityPressure
High70 °F (Feb 6, 12:50 PM)100% (Jan 27, 9:50 PM)30.18 "Hg (Jan 27, 9:50 PM)
Low41 °F (Jan 26, 10:50 PM)32% (Jan 31, 10:50 AM)29.27 "Hg (Feb 9, 10:50 AM)
Average53 °F74%29.80 "Hg
* Reported Jan 26 4:50 PM — Feb 10 4:50 PM, Stanley, Weather by CustomWeather, © 2016

Note: Actual official high and low records may vary slightly from our data, if they occured in-between our weather recording intervals... More about our weather records

Advertising

Stanley Weather History for the Previous 24 Hours

 ConditionsComfort  
Time TempWeatherWind HumidityBarometerVisibility
4:50 PM
Wed, Feb 10
52 °FScattered clouds.28 mph54%29.62 "HgN/A
3:50 PM50 °FScattered clouds.31 mph58%29.62 "HgN/A
2:50 PM52 °FPartly sunny.33 mph58%29.59 "HgN/A
1:50 PM52 °FScattered clouds.32 mph58%29.59 "HgN/A
12:50 PM48 °FBroken clouds.23 mph76%29.59 "HgN/A
11:50 AM50 °FRain. Partly sunny.26 mph67%29.59 "Hg3 mi
10:50 AM46 °FSprinkles. Broken clouds.32 mph76%29.59 "HgN/A
9:50 AM48 °FSunny.28 mph76%29.56 "HgN/A
8:50 AM43 °FSunny.22 mph93%29.56 "HgN/A
7:50 AM46 °FCool.24 mph76%29.56 "HgN/A
6:50 AM43 °FPassing clouds.20 mph87%29.53 "HgN/A
5:50 AM41 °FPartly sunny.20 mph93%29.53 "HgN/A
4:50 AM41 °FPartly cloudy.26 mph93%29.50 "HgN/A
3:50 AM43 °FSprinkles. Passing clouds.16 mph87%29.47 "HgN/A
2:50 AM41 °FPassing clouds.15 mph87%29.50 "HgN/A
1:50 AM43 °FPassing clouds.14 mph87%29.50 "HgN/A
12:50 AM45 °FPassing clouds.18 mph87%29.47 "HgN/A
11:50 PM
Tue, Feb 9
48 °FPassing clouds.24 mph71%29.45 "HgN/A
10:50 PM48 °FPartly cloudy.24 mph71%29.45 "HgN/A
9:50 PM46 °FPassing clouds.22 mph76%29.45 "HgN/A
8:50 PM46 °FPassing clouds.21 mph71%29.47 "HgN/A
7:50 PM48 °FPassing clouds.23 mph62%29.47 "HgN/A
6:50 PM50 °FPassing clouds.23 mph58%29.47 "HgN/A
Weather by CustomWeather, © 2016

See weather overviewHow to use our weather pages